DELTA 1 DEB, 3811

Orbit data source: Space-Track

DELTA 1 DEB, 3811 is space debris in SSO originally from a launch on Sun, 15 Dec 1968 UTC launched from the Air Force Western Test Range (AFWTR). Debris objects in space refer to the collection of defunct objects orbiting the Earth. Examples of debris include non-operational satellites, rocket bodies, and fragments generated from explosions, collisions, or faulty payload assembly.

Loading next visibility...
Identifier
3811, 1968-114C
Orbit
SSO
Country
Flag of USUS
Related business
Manufacturer
Unknown
Mission
Spacecraft
Bus & Motor
Unknown
Mass
Unknown
Launch date (UTC)
1968-12-15 (58 years ago)
Launch vehicle
Unknown
Launch site
Air Force Western Test Range (AFWTR)
Object type
Payload
Rocket body
Debris
Shape & HBR
Unknown shape, 0.050 m
Radar Cross Section
Medium (>0.1 m² and <1 m²)

Expand to show TLE details & history
Last TLE update: 23 hours ago

TLE from 23 hours ago
0 DELTA 1 DEB
1 03811U 68114C   26266.32180602 -.00000034  00000-0  67772-4 0  9998
2 03811 101.9106 211.2950 0137666 327.3425 187.6917 12.76397829690747
Epoch: 2026-09-23T07:43Z
TLE epoch observation values (Epoch: 2026-09-23T07:43:24.040Z)
Latitude
24.62159°
Longitude
-81.2098°
Altitude
1,464.245 km
Speed
7.084 km/s
True Right ascension
02h 27m 15s
True Declination
24° 30' 12"
Sunlit
Object was in full shadow at epoch
Visualization orbit readout
Latitude
Unknown
Longitude
Unknown
Altitude
Unknown
Speed
Unknown
Apparent Right ascension
Unknown
Apparent Declination
Unknown
Sunlit
N/A
Visualization observer readout
Local Sidereal Time
23:40:44
Azimuth
Unknown
Elevation
Unknown
Doppler factor
Unknown
Orbital elements
Apogee altitude
1,459.947 km
Perigee altitude
1,247.07 km
Semi-major axis
7,731.645 km
Eccentricity
0.01377
Inclination
101.9106°
RAAN
211.295°
Arg. of periapsis
327.3425°
True anomaly
187.4841°
Mean anomaly
187.6917°
Eccentric anomaly
187.58755°
Mean motion
3.19253 °/min
Orbital period
112.76 mins
BSTAR
0.000067772
Loading maneuver chart data...
Computing Atmospheric mass density...
Loading historical data...
Loading historical data...
Loading historical data...
Loading historical data...
Loading historical data...
Loading historical data...
Loading historical data...

Documentation

Showing up to 5 results
|